TimeCST,TemperatureF,Dew PointF,Humidity,Sea Level PressureIn,VisibilityMPH,Wind Direction,Wind SpeedMPH,Gust SpeedMPH,PrecipitationIn,Events,Conditions,WindDirDegrees,DateUTC
12:15 AM,28.4,26.6,93,30.02,3.0,ENE,11.5,-,N/A,Rain,Freezing Rain,60,2012-11-10 06:15:00
12:35 AM,28.4,26.6,93,30.01,2.5,ENE,12.7,-,N/A,Rain,Freezing Rain,60,2012-11-10 06:35:00
12:55 AM,28.4,26.6,93,30.00,2.5,NE,13.8,-,N/A,Rain,Freezing Rain,50,2012-11-10 06:55:00
1:15 AM,28.4,26.6,93,29.99,2.5,NE,11.5,-,N/A,Rain,Freezing Rain,50,2012-11-10 07:15:00
1:35 AM,28.4,28.4,100,29.98,2.5,NE,13.8,-,N/A,Rain,Freezing Rain,50,2012-11-10 07:35:00
1:55 AM,28.4,28.4,100,29.98,3.0,NE,11.5,-,N/A,Rain,Freezing Rain,50,2012-11-10 07:55:00
2:15 AM,28.4,28.4,100,29.96,2.5,ENE,13.8,-,N/A,Rain,Freezing Rain,60,2012-11-10 08:15:00
2:35 AM,28.4,28.4,100,29.95,3.0,NE,15.0,21.9,N/A,Rain,Freezing Rain,50,2012-11-10 08:35:00
2:55 AM,28.4,28.4,100,29.95,2.5,North,-9999.0,-,N/A,Rain,Freezing Rain,0,2012-11-10 08:55:00
3:15 AM,28.4,28.4,100,29.93,3.0,North,-9999.0,-,N/A,Rain,Freezing Rain,0,2012-11-10 09:15:00
3:35 AM,28.4,28.4,100,29.93,2.5,North,-9999.0,-,N/A,Snow,Light Snow,0,2012-11-10 09:35:00
3:55 AM,28.4,28.4,100,29.92,3.0,North,-9999.0,-,N/A,Rain,Freezing Rain,0,2012-11-10 09:55:00
4:35 AM,28.4,28.4,100,29.89,3.0,North,-9999.0,-,N/A,Snow,Light Snow,0,2012-11-10 10:35:00
4:55 AM,28.4,28.4,100,29.89,5.0,North,-9999.0,-,N/A,Rain,Freezing Rain,0,2012-11-10 10:55:00
5:15 AM,28.4,28.4,100,29.90,1.8,North,-9999.0,-,N/A,Snow,Light Snow,0,2012-11-10 11:15:00
5:35 AM,28.4,28.4,100,29.88,4.0,North,-9999.0,-,N/A,Snow,Light Snow,0,2012-11-10 11:35:00
5:55 AM,28.4,28.4,100,29.87,4.0,North,-9999.0,-,N/A,Rain,Freezing Rain,0,2012-11-10 11:55:00
6:35 AM,28.4,28.4,100,29.86,2.5,North,-9999.0,-,N/A,Rain,Freezing Rain,0,2012-11-10 12:35:00
6:55 AM,28.4,28.4,100,29.84,2.5,North,-9999.0,-,N/A,Rain,Freezing Rain,0,2012-11-10 12:55:00
7:15 AM,28.4,28.4,100,29.84,2.5,NNE,4.6,-,N/A,,Overcast,20,2012-11-10 13:15:00
7:35 AM,28.4,28.4,100,29.84,2.5,North,4.6,-,N/A,,Overcast,360,2012-11-10 13:35:00
7:55 AM,28.4,28.4,100,29.84,1.5,North,4.6,-,N/A,,Overcast,360,2012-11-10 13:55:00
8:15 AM,30.2,30.2,100,29.83,1.0,North,4.6,-,N/A,Rain,Freezing Rain,360,2012-11-10 14:15:00
8:35 AM,30.2,30.2,100,29.82,1.0,North,4.6,16.1,N/A,Rain,Freezing Rain,360,2012-11-10 14:35:00
8:55 AM,30.2,30.2,100,29.82,1.5,North,4.6,-,N/A,Rain,Freezing Rain,360,2012-11-10 14:55:00
9:35 AM,30.2,30.2,100,29.80,1.0,Calm,Calm,-,N/A,Rain,Freezing Rain,0,2012-11-10 15:35:00
9:55 AM,30.2,30.2,100,29.80,1.0,ENE,8.1,-,N/A,Rain,Freezing Rain,60,2012-11-10 15:55:00
10:15 AM,30.2,30.2,100,29.79,1.2,East,8.1,-,N/A,,Overcast,80,2012-11-10 16:15:00
10:35 AM,30.2,30.2,100,29.78,1.0,NE,12.7,-,N/A,,Overcast,50,2012-11-10 16:35:00
10:55 AM,32.0,32.0,100,29.78,1.0,NE,11.5,-,N/A,,Overcast,50,2012-11-10 16:55:00
11:15 AM,30.2,30.2,100,29.76,1.0,NE,13.8,-,N/A,Rain,Freezing Rain,50,2012-11-10 17:15:00
11:35 AM,30.2,30.2,100,29.76,1.2,NE,13.8,-,N/A,,Overcast,50,2012-11-10 17:35:00
11:55 AM,30.2,30.2,100,29.75,1.2,ENE,10.4,-,N/A,,Overcast,60,2012-11-10 17:55:00
12:15 PM,32.0,32.0,100,29.74,1.0,NE,10.4,-,N/A,,Overcast,50,2012-11-10 18:15:00
12:35 PM,30.2,30.2,100,29.72,0.8,NE,10.4,-,N/A,,Overcast,50,2012-11-10 18:35:00
12:55 PM,32.0,32.0,100,29.71,0.8,NE,11.5,-,N/A,,Overcast,40,2012-11-10 18:55:00
1:15 PM,32.0,32.0,100,29.68,0.8,NE,13.8,-,N/A,,Overcast,50,2012-11-10 19:15:00
1:35 PM,32.0,32.0,100,29.68,1.0,NE,12.7,-,N/A,,Overcast,50,2012-11-10 19:35:00
1:55 PM,32.0,32.0,100,29.67,2.5,NE,13.8,19.6,N/A,,Overcast,50,2012-11-10 19:55:00
2:15 PM,32.0,32.0,100,29.67,4.0,NE,12.7,18.4,N/A,,Overcast,40,2012-11-10 20:15:00
2:35 PM,30.2,30.2,100,29.65,3.0,NE,12.7,19.6,N/A,,Overcast,40,2012-11-10 20:35:00
2:55 PM,30.2,30.2,100,29.66,3.0,NE,10.4,-,N/A,,Overcast,40,2012-11-10 20:55:00
3:15 PM,30.2,30.2,100,29.66,3.0,NNE,10.4,-,N/A,,Overcast,20,2012-11-10 21:15:00
3:35 PM,30.2,30.2,100,29.66,1.2,NNE,9.2,-,N/A,Rain,Freezing Rain,20,2012-11-10 21:35:00
3:55 PM,32.0,32.0,100,29.67,1.2,North,10.4,-,N/A,Rain,Light Rain,10,2012-11-10 21:55:00
4:15 PM,32.0,32.0,100,29.68,2.0,North,10.4,-,N/A,Rain,Light Rain,10,2012-11-10 22:15:00
4:35 PM,32.0,32.0,100,29.66,1.5,North,12.7,-,N/A,Rain,Light Rain,10,2012-11-10 22:35:00
4:55 PM,32.0,32.0,100,29.66,2.5,North,13.8,-,N/A,Rain,Light Rain,360,2012-11-10 22:55:00
5:15 PM,32.0,32.0,100,29.65,3.0,North,12.7,-,N/A,Rain,Light Rain,360,2012-11-10 23:15:00
5:35 PM,32.0,32.0,100,29.65,3.0,North,12.7,-,N/A,Rain,Light Rain,10,2012-11-10 23:35:00
5:55 PM,32.0,32.0,100,29.64,5.0,North,13.8,-,N/A,Rain,Light Rain,360,2012-11-10 23:55:00
6:15 PM,30.2,30.2,100,29.64,4.0,North,15.0,-,N/A,Rain,Freezing Rain,10,2012-11-11 00:15:00
6:35 PM,30.2,30.2,100,29.65,3.0,North,13.8,-,N/A,Rain,Freezing Rain,360,2012-11-11 00:35:00
6:55 PM,30.2,30.2,100,29.64,3.0,North,15.0,-,N/A,Rain,Freezing Rain,360,2012-11-11 00:55:00
7:15 PM,28.4,28.4,100,29.63,2.5,North,16.1,-,N/A,Rain,Freezing Rain,360,2012-11-11 01:15:00
7:35 PM,28.4,28.4,100,29.64,2.5,North,16.1,-,N/A,Rain,Freezing Rain,350,2012-11-11 01:35:00
7:55 PM,28.4,28.4,100,29.63,3.0,North,13.8,20.7,N/A,Rain,Freezing Rain,350,2012-11-11 01:55:00
8:15 PM,28.4,28.4,100,29.62,3.0,North,-9999.0,-,N/A,Rain,Freezing Rain,0,2012-11-11 02:15:00
8:35 PM,28.4,28.4,100,29.60,5.0,North,-9999.0,-,N/A,,Overcast,0,2012-11-11 02:35:00
8:55 PM,26.6,26.6,100,29.59,7.0,North,-9999.0,-,N/A,Rain,Freezing Rain,0,2012-11-11 02:55:00
9:15 PM,26.6,26.6,100,29.60,4.0,North,-9999.0,-,N/A,Rain,Freezing Rain,0,2012-11-11 03:15:00
9:35 PM,26.6,26.6,100,29.59,4.0,North,17.3,-,N/A,Rain,Freezing Rain,350,2012-11-11 03:35:00
10:15 PM,26.6,26.6,100,29.56,5.0,NNW,20.7,25.3,N/A,Rain,Freezing Rain,340,2012-11-11 04:15:00
10:35 PM,26.6,26.6,100,29.58,8.0,NNW,15.0,23.0,N/A,,Overcast,340,2012-11-11 04:35:00
10:55 PM,26.6,26.6,100,29.60,5.0,NNW,12.7,18.4,N/A,Rain,Freezing Rain,330,2012-11-11 04:55:00
11:35 PM,24.8,24.8,100,29.60,1.0,NNW,10.4,20.7,N/A,Snow,Light Snow,340,2012-11-11 05:35:00
11:55 PM,24.8,24.8,100,29.59,1.0,NW,17.3,20.7,N/A,Snow,Light Snow,320,2012-11-11 05:55:00